sat.trackr.live / text

‹ back to catalog

STARLINK-3629

NORAD 51774 · 2022-017G

PAYLOAD ACTIVE UNKNOWN

§ Identity

Operator
Country
US
Launch date
2022-02-25
Launch site
AFWTR
Launch vehicle
Mass (kg)
RCS (m²)

Purposes: comms

External: N2YO · Heavens-Above · Gunter

§ Orbital elements

Epoch: 2026-05-24T23:16:38.474400Z

Period
95.44 min
Inclination
53.2138°
Eccentricity
0.0001354
Mean motion
15.08840188 rev/d
Perigee alt
538.8 km
Apogee alt
540.7 km
Semi-major
6,917.9 km
B*
1.6499e-5
RAAN
356.6855°
Arg perigee
83.1911°
Mean anomaly
276.9235°
Rev number
23,408

§ Raw data

STARLINK-36291 51774U 22017G   26144.96988975 -.00000025  00000+0  16499-4 0  99942 51774  53.2138 356.6855 0001354  83.1911 276.9235 15.08840188234086

JSON: /api/v1/satellites/51774 · /tle

For live sub-satellite position, see the globe view (requires WebGL).

§ Visibility from observer

Set your observer location to see the next 7 days of passes ≥ 10°. The values pass through the URL so the page stays shareable.

No JS? Fill the form by hand. The geolocation button needs JavaScript.